Flag for Germany Weather past 2 weeks in Unna, North Rhine-Westphalia, Germany

Now
36 °F

Clear.


Feels Like: 36 °F
Forecast: 35 / 58 °F
Wind: 1 mph from North

Location: Dortmund / Wickede

Current Time: Apr 18, 2015 at 8:05:55 AM

Latest Report: Apr 18, 2015 at 7:20 AM


Visibility: 10 mi

Pressure: 30.30 "Hg

Humidity: 81%

Dew point: 30 °F

Location of UnnaLocation

Historic Weather in Unna — Graph

°F

Unna temperature yesterday

Maximum temperature yesterday: 54 °F (at 3:50 PM)
Minimum temperature yesterday: 39 °F (at 5:20 AM)
Average temperature yesterday: 47 °F

Past Weeks' High & Low Weather Summary

 TemperatureHumidityPressure
High73 °F (Apr 15, 4:20 PM)93% (Apr 5, 7:50 AM)30.63 "Hg (Apr 5, 7:50 AM)
Low28 °F (Apr 5, 6:50 AM)20% (Apr 10, 5:50 PM)29.92 "Hg (Apr 15, 6:20 PM)
Average50 °F59%30.23 "Hg
* Reported Apr 3 6:20 AM — Apr 18 6:50 AM, Unna, Weather by CustomWeather, © 2015

Note: Actual official high and low records may vary slightly from our data, if they occured in-between our weather recording intervals... More about our weather records

Advertising

Unna weather history for previous 24 hours

 ConditionsComfort  
Time TempWeatherWind HumidityBarometerVisibility
6:50 AM
Sat, Apr 18
34 °FClear.2 mph87%30.27 "Hg10 mi
6:20 AM36 °FClear.2 mph81%30.27 "Hg10 mi
5:50 AM34 °FClear.2 mph81%30.27 "Hg10 mi
5:20 AM34 °FClear.3 mph75%30.27 "Hg10 mi
10:50 PM
Fri, Apr 17
43 °FPassing clouds.6 mph57%30.18 "HgN/A
10:20 PM43 °FClear.6 mph57%30.15 "Hg10 mi
9:50 PM45 °FClear.5 mph53%30.15 "Hg10 mi
9:20 PM45 °FSunny.7 mph57%30.12 "Hg10 mi
8:50 PM46 °FSunny.8 mph53%30.12 "Hg10 mi
8:20 PM48 °FSunny.9 mph46%30.09 "Hg10 mi
7:50 PM50 °FSunny.9 mph40%30.09 "Hg10 mi
7:20 PM52 °FPassing clouds.9 mph44%30.07 "HgN/A
6:50 PM52 °FSunny.9 mph44%30.07 "Hg10 mi
6:20 PM50 °FSunny.9 mph50%30.07 "Hg10 mi
5:50 PM50 °FPassing clouds.10 mph47%30.07 "HgN/A
5:20 PM52 °FPassing clouds.9 mph44%30.07 "HgN/A
4:50 PM52 °FScattered clouds.9 mph47%30.07 "HgN/A
4:20 PM50 °FSunny.12 mph58%30.07 "Hg10 mi
3:50 PM54 °FSunny.9 mph47%30.07 "Hg10 mi
3:20 PM52 °FPartly sunny.9 mph50%30.07 "HgN/A
2:50 PM52 °FSunny.8 mph50%30.07 "Hg10 mi
2:20 PM50 °FScattered clouds.8 mph58%30.07 "HgN/A
1:50 PM48 °FPartly sunny.8 mph58%30.07 "HgN/A
1:20 PM48 °FScattered clouds.8 mph62%30.07 "HgN/A
12:50 PM48 °FPartly sunny.7 mph62%30.07 "HgN/A
12:20 PM48 °FScattered clouds.7 mph66%30.07 "HgN/A
11:50 AM48 °FPassing clouds.7 mph62%30.07 "HgN/A
11:20 AM46 °FScattered clouds.7 mph62%30.04 "HgN/A
10:50 AM45 °FScattered clouds.7 mph66%30.04 "HgN/A
10:20 AM45 °FScattered clouds.7 mph71%30.04 "HgN/A
9:50 AM45 °FScattered clouds.7 mph71%30.04 "HgN/A
9:20 AM43 °FScattered clouds.7 mph76%30.04 "HgN/A
8:50 AM43 °FScattered clouds.7 mph76%30.04 "HgN/A
8:20 AM43 °FSunny.6 mph76%30.01 "Hg10 mi
Weather by CustomWeather, © 2015

See weather overviewHow to use our weather pages